Weather History for K8D3 - March, 2013

Change the Weather History Date:

Thursday, March 14, 2013

  Actual Average Record
Temperature  
Mean Temperature 26 °F 29 °F  
Max Temperature 38 °F 38 °F 70 °F (1981)
Min Temperature 13 °F 20 °F -12 °F (1960)
Degree Days  
Heating Degree Days 39 36  
Month to date heating degree days 638 543  
Since 1 July heating degree days 7023 6802  
Cooling Degree Days 0 0  
Month to date cooling degree days 0 0  
Year to date cooling degree days 0 0  
Moisture  
Dew Point 24 °F    
Average Humidity 86    
Maximum Humidity 100    
Minimum Humidity 72    
Precipitation  
Precipitation 0.00 in 0.04 in 0.91 in (1957)
Month to date precipitation 0.73 0.48  
Year to date precipitation 3.11 1.34  
Snow  
Snow 0.00 in - - ()
Month to date snowfall 3.3  
Since 1 July snowfall 40.0  
Snow Depth 15.00 in    
Sea Level Pressure  
Sea Level Pressure 30.11 in    
Wind  
Wind Speed 5 mph (SE)    
Max Wind Speed 20 mph    
Max Gust Speed 24 mph    
T = Trace of Precipitation, MM = Missing Value Source: NWS Daily Summary

Daily Weather History Graph

Daily Weather History Graph

Search for Another Location

Airport or City:

Trip Planner

Search our weather history database for the weather conditions in past years. The results will help you decide how hot, cold, wet, or windy it might be!

Date:

Astronomy

Mar. 14, 2013 Rise Set
Actual Time 7:41 AM CDT 7:32 PM CDT
Civil Twilight 7:12 AM CDT 8:02 PM CDT
Nautical Twilight 6:37 AM CDT 8:37 PM CDT
Astronomical Twilight 6:02 AM CDT 9:12 PM CDT
Moon 8:45 AM CDT (3/14) 11:03 PM CDT (3/14)
Length of Visible Light 12h 50m
Length of Day
11h 51m
Waxing Crescent, 9% of the Moon is Illuminated
Mar 14
Waxing Crescent
Mar 19
First Quarter
Mar 27
Full
Apr 2
Last Quarter
Apr 10
New

Hourly Weather History & Observations

Time (CDT) Temp. Windchill Dew Point Humidity Pressure Visibility Wind Dir Wind Speed Gust Speed Precip Events Conditions
12:56 AM 25.0 °F 11.7 °F 21.9 °F 88% 30.10 in - SSE 17.3 mph - N/A   Unknown
1:56 AM 27.0 °F 15.2 °F 24.1 °F 89% 30.06 in - South 15.0 mph - N/A   Unknown
2:56 AM 33.1 °F 21.9 °F 26.1 °F 75% 30.04 in - SSW 18.4 mph - N/A   Unknown
3:56 AM 26.1 °F 21.9 °F 23.0 °F 88% 30.07 in - SE 3.5 mph - N/A   Unknown
4:56 AM 23.0 °F 14.7 °F 21.9 °F 96% 30.07 in - SSE 6.9 mph - N/A   Unknown
5:56 AM 21.0 °F 13.4 °F 19.9 °F 96% 30.07 in - SSE 5.8 mph - N/A   Unknown
6:56 AM 17.1 °F - 16.0 °F 96% 30.10 in - Calm Calm - N/A   Unknown
7:56 AM 14.0 °F 8.2 °F 12.9 °F 95% 30.13 in - NNE 3.5 mph - N/A   Unknown
8:56 AM 16.0 °F 10.4 °F 15.1 °F 96% 30.16 in - NNW 3.5 mph - N/A   Unknown
9:56 AM 18.0 °F 12.7 °F 16.0 °F 92% 30.15 in - NW 3.5 mph - N/A   Unknown
10:56 AM 26.1 °F - 21.0 °F 81% 30.15 in - Calm Calm - N/A   Unknown
11:56 AM 32.0 °F - 25.0 °F 75% 30.15 in - Calm Calm - N/A   Unknown
12:56 PM 33.1 °F 27.7 °F 27.0 °F 78% 30.16 in - NNE 5.8 mph - N/A   Unknown
1:56 PM 34.0 °F - 28.0 °F 79% 30.13 in - Calm Calm - N/A   Unknown
2:56 PM 34.0 °F - 28.9 °F 82% 30.12 in - Calm Calm - N/A   Unknown
3:56 PM 35.1 °F - 28.9 °F 78% 30.13 in - Calm Calm - N/A   Unknown
4:56 PM 35.1 °F - 28.9 °F 78% 30.12 in - Calm Calm - N/A   Unknown
5:56 PM 33.1 °F 28.7 °F 28.9 °F 85% 30.11 in - SE 4.6 mph - N/A   Unknown
6:56 PM 33.1 °F 28.7 °F 28.0 °F 82% 30.12 in - South 4.6 mph - N/A   Unknown
7:56 PM 32.0 °F - 28.9 °F 88% 30.12 in - Calm Calm - N/A   Unknown
8:56 PM 28.9 °F - 27.0 °F 92% 30.12 in - Calm Calm - N/A   Unknown
9:56 PM 28.9 °F - 27.0 °F 92% 30.10 in - Calm Calm - N/A   Unknown
10:56 PM 28.0 °F 21.7 °F 26.1 °F 92% 30.10 in - NNW 5.8 mph - N/A   Unknown
11:56 PM 28.0 °F 16.1 °F 25.0 °F 88% 30.12 in - North 16.1 mph - N/A   Unknown